COSMO-SKYMED 4

Last updated on Fri Oct 04 2024 00:02:25 GMT+0000 (Coordinated Universal Time)

1 37216U 10060A 24277.53670862 .00003144 00000+0 40103-3 0 9997 2 37216 97.8888 99.1173 0001400 84.3617 275.7756 14.82184552752488
UTC large
Height (km)
Speed (km/s)
/
Latitude / Longitude
Inclination (degrees)
Orbital Period (minutes)
Azimuth
Elevation
Range (km)
Doppler Factor

Next 0 passes for location: London (51.5072 / 0.1276)

Sorry there are no passes over London.